Hourly Weather Aalten

Today, 26 February, Friday

Time Temperature Precipitation Wind Pressure Humidity
00:00 +8°C° 0 mm 4 mps 769 mmHg 82%
01:00 +8°C° 0 mm 3 mps 769 mmHg 80%
02:00 +8°C° 0 mm 3 mps 770 mmHg 78%
03:00 +8°C° 0 mm 3 mps 770 mmHg 75%
04:00 +7°C° 0 mm 2 mps 770 mmHg 77%
05:00 +7°C° 0 mm 2 mps 770 mmHg 79%
06:00 +7°C° 0 mm 1 mps 771 mmHg 79%
07:00 +7°C° 0 mm 2 mps 771 mmHg 77%
08:00 +7°C° 0 mm 3 mps 771 mmHg 76%
09:00 +8°C° 0 mm 3 mps 772 mmHg 74%
10:00 +8°C° 0 mm 4 mps 772 mmHg 67%
11:00 +8°C° 0 mm 4 mps 772 mmHg 61%
12:00 +10°C° 0 mm 4 mps 773 mmHg 53%
13:00 +9°C° 0 mm 5 mps 772 mmHg 53%
14:00 +9°C° 0 mm 5 mps 772 mmHg 53%
15:00 +9°C° 0 mm 5 mps 772 mmHg 53%
16:00 +7°C° 0 mm 4 mps 773 mmHg 60%
17:00 +6°C° 0 mm 4 mps 773 mmHg 67%
18:00 +5°C° 0 mm 3 mps 773 mmHg 74%
19:00 +4°C° 0 mm 3 mps 774 mmHg 79%
20:00 +3°C° 0 mm 3 mps 774 mmHg 83%
21:00 +4°C° 0 mm 2 mps 774 mmHg 88%
22:00 +4°C° 0 mm 2 mps 775 mmHg 90%
23:00 +3°C° 0 mm 2 mps 775 mmHg 92%

Tomorrow, 27 February, Saturday

Time Temperature Precipitation Wind Pressure Humidity
00:00 +3°C° 0 mm 2 mps 775 mmHg 94%
01:00 +3°C° 0 mm 2 mps 775 mmHg 94%
02:00 +2°C° 0 mm 2 mps 775 mmHg 94%
03:00 +3°C° 0 mm 1 mps 775 mmHg 94%
04:00 +2°C° 0 mm 2 mps 775 mmHg 93%
05:00 +2°C° 0 mm 2 mps 776 mmHg 93%
06:00 +2°C° 0 mm 2 mps 776 mmHg 93%
07:00 +4°C° 0 mm 1 mps 776 mmHg 87%
08:00 +5°C° 0 mm 1 mps 776 mmHg 82%
09:00 +7°C° 0 mm 1 mps 776 mmHg 76%
10:00 +8°C° 0 mm 1 mps 776 mmHg 71%
11:00 +8°C° 0 mm 2 mps 777 mmHg 65%
12:00 +10°C° 0 mm 2 mps 777 mmHg 59%
13:00 +10°C° 0 mm 2 mps 776 mmHg 59%
14:00 +10°C° 0 mm 2 mps 776 mmHg 59%
15:00 +12°C° 0 mm 2 mps 776 mmHg 58%
16:00 +9°C° 0 mm 2 mps 776 mmHg 64%
17:00 +8°C° 0 mm 2 mps 776 mmHg 69%
18:00 +7°C° 0 mm 2 mps 776 mmHg 75%
19:00 +6°C° 0 mm 2 mps 776 mmHg 78%
20:00 +6°C° 0 mm 2 mps 776 mmHg 82%
21:00 +5°C° 0 mm 2 mps 776 mmHg 85%
22:00 +5°C° 0 mm 2 mps 776 mmHg 87%
23:00 +4°C° 0 mm 2 mps 776 mmHg 88%

Day after tomorrow, 28 February, Sunday

Time Temperature Precipitation Wind Pressure Humidity
00:00 +5°C° 0 mm 1 mps 776 mmHg 90%
01:00 +5°C° 0 mm 1 mps 776 mmHg 90%
02:00 +5°C° 0 mm 1 mps 775 mmHg 90%
03:00 +4°C° 0 mm 1 mps 775 mmHg 91%
04:00 +4°C° 0 mm 1 mps 775 mmHg 91%
05:00 +4°C° 0 mm 1 mps 775 mmHg 92%
06:00 +3°C° 0 mm 1 mps 775 mmHg 92%
07:00 +5°C° 0 mm 1 mps 775 mmHg 88%
08:00 +5°C° 0 mm 2 mps 775 mmHg 83%
09:00 +6°C° 0 mm 2 mps 774 mmHg 79%
10:00 +7°C° 0 mm 2 mps 774 mmHg 73%
11:00 +9°C° 0 mm 2 mps 774 mmHg 68%
12:00 +10°C° 0 mm 2 mps 774 mmHg 62%
13:00 +10°C° 0 mm 2 mps 774 mmHg 62%
14:00 +12°C° 0 mm 2 mps 773 mmHg 61%
15:00 +12°C° 0 mm 2 mps 773 mmHg 61%
16:00 +10°C° 0 mm 2 mps 773 mmHg 67%
17:00 +9°C° 0 mm 2 mps 773 mmHg 72%
18:00 +7°C° 0 mm 2 mps 773 mmHg 78%
19:00 +7°C° 0 mm 2 mps 773 mmHg 81%
20:00 +6°C° 0 mm 2 mps 773 mmHg 84%
21:00 +6°C° 0 mm 2 mps 773 mmHg 87%
22:00 +5°C° 0 mm 2 mps 773 mmHg 89%
23:00 +5°C° 0 mm 2 mps 773 mmHg 90%

1 March, Monday

Time Temperature Precipitation Wind Pressure Humidity
00:00 +5°C° 0 mm 2 mps 774 mmHg 92%
01:00 +4°C° 0 mm 2 mps 773 mmHg 92%
02:00 +4°C° 0 mm 2 mps 773 mmHg 92%
03:00 +4°C° 0 mm 2 mps 773 mmHg 92%
04:00 +3°C° 0 mm 2 mps 773 mmHg 92%
05:00 +3°C° 0 mm 2 mps 772 mmHg 91%
06:00 +3°C° 0 mm 2 mps 772 mmHg 91%
07:00 +3°C° 0 mm 3 mps 772 mmHg 85%
08:00 +4°C° 0 mm 3 mps 772 mmHg 80%
09:00 +5°C° 0 mm 3 mps 772 mmHg 75%
10:00 +8°C° 0 mm 3 mps 772 mmHg 70%
11:00 +9°C° 0 mm 3 mps 772 mmHg 65%
12:00 +11°C° 0 mm 3 mps 772 mmHg 60%
13:00 +11°C° 0 mm 3 mps 772 mmHg 59%
14:00 +11°C° 0 mm 4 mps 771 mmHg 58%
15:00 +12°C° 0 mm 4 mps 771 mmHg 58%
16:00 +10°C° 0 mm 4 mps 770 mmHg 63%
17:00 +9°C° 0 mm 3 mps 770 mmHg 68%
18:00 +8°C° 0 mm 3 mps 770 mmHg 74%
19:00 +7°C° 0 mm 3 mps 770 mmHg 76%
20:00 +7°C° 0 mm 3 mps 770 mmHg 78%
21:00 +5°C° 0 mm 3 mps 771 mmHg 80%
22:00 +5°C° 0 mm 3 mps 770 mmHg 82%
23:00 +4°C° 0 mm 3 mps 770 mmHg 84%

2 March, Tuesday

Time Temperature Precipitation Wind Pressure Humidity
00:00 +4°C° 0 mm 3 mps 770 mmHg 86%
01:00 +5°C° 0 mm 2 mps 770 mmHg 86%
02:00 +4°C° 0 mm 2 mps 769 mmHg 87%
03:00 +4°C° 0 mm 2 mps 769 mmHg 87%
04:00 +4°C° 0 mm 2 mps 769 mmHg 87%
05:00 +4°C° 0 mm 2 mps 769 mmHg 87%
06:00 +4°C° 0 mm 2 mps 769 mmHg 87%
07:00 +5°C° 0 mm 2 mps 769 mmHg 81%
08:00 +6°C° 0 mm 2 mps 769 mmHg 76%
09:00 +8°C° 0 mm 2 mps 769 mmHg 70%
10:00 +9°C° 0 mm 2 mps 768 mmHg 65%
11:00 +10°C° 0 mm 2 mps 768 mmHg 59%
12:00 +13°C° 0 mm 2 mps 768 mmHg 54%
13:00 +13°C° 0 mm 2 mps 768 mmHg 53%
14:00 +13°C° 0 mm 2 mps 768 mmHg 51%
15:00 +14°C° 0 mm 1 mps 767 mmHg 50%
16:00 +12°C° 0 mm 1 mps 767 mmHg 55%
17:00 +11°C° 0 mm 1 mps 767 mmHg 61%
18:00 +9°C° 0 mm 1 mps 768 mmHg 66%
19:00 +9°C° 0 mm 1 mps 768 mmHg 68%
20:00 +8°C° 0 mm 1 mps 768 mmHg 70%
21:00 +8°C° 0 mm 1 mps 768 mmHg 72%
22:00 +7°C° 0 mm 1 mps 768 mmHg 74%
23:00 +7°C° 0 mm 1 mps 768 mmHg 76%

3 March, Wednesday

Time Temperature Precipitation Wind Pressure Humidity
00:00 +7°C° 0 mm 1 mps 768 mmHg 78%
01:00 +6°C° 0 mm 1 mps 768 mmHg 80%
02:00 +6°C° 0 mm 1 mps 768 mmHg 82%
03:00 +6°C° 0 mm 1 mps 768 mmHg 84%
04:00 +6°C° 0 mm 1 mps 768 mmHg 86%
05:00 +5°C° 0 mm 2 mps 768 mmHg 88%
06:00 +5°C° 0 mm 2 mps 768 mmHg 90%
07:00 +6°C° 0 mm 2 mps 768 mmHg 87%
08:00 +7°C° 0 mm 2 mps 768 mmHg 83%
09:00 +9°C° 0 mm 3 mps 768 mmHg 80%
10:00 +10°C° 0 mm 3 mps 768 mmHg 75%
11:00 +12°C° 0 mm 3 mps 768 mmHg 70%
12:00 +13°C° 0 mm 3 mps 767 mmHg 65%
13:00 +13°C° 0 mm 3 mps 767 mmHg 64%
14:00 +14°C° 0 mm 3 mps 767 mmHg 63%
15:00 +14°C° 0 mm 3 mps 767 mmHg 62%
16:00 +13°C° 0.6 mm 3 mps 766 mmHg 70%
17:00 +13°C° 0.6 mm 2 mps 766 mmHg 77%
18:00 +10°C° 0.6 mm 2 mps 766 mmHg 85%
19:00 +10°C° 0.3 mm 2 mps 766 mmHg 87%
20:00 +9°C° 0.3 mm 2 mps 766 mmHg 89%
21:00 +9°C° 0.3 mm 2 mps 766 mmHg 91%
22:00 +9°C° 0.2 mm 2 mps 766 mmHg 91%
23:00 +8°C° 0.2 mm 2 mps 766 mmHg 91%
Show more

We Need Your Consent

Meteoprog and our Service Providers may store and access personal data such as cookies, device identifiers or other similar technologies on your device and process such data to personalise content and ads, as well as provide social media features and to analyse the traffic.

  • Store and/or access information on your device

    Cookies, device identifiers or other information can be stored or accessed on your device for the purposes indicated above.

  • Personalised ads and content, ad and content measurement, audience insights, and products development

    Ads and content can be personalised based on a profile. More data can be added to better personalise ads and content. Ad and content performance can be measured. Insights about the audience who saw the ads and content can be derived. Such data can be used to develop or improve user’s experience, systems and software.

By clicking ‘I Agree’ you will allow the use of indicated cookies, device identifiers, web beacons or other similar technologies. Your settings can be changed in the browser on your device.

For certain purposes, legitimate interests may be relied on, rather than consent. You can read more about this in our Privacy and Cookie Policy.